Terminal Aerodrome Forecast
Issued by NWS

Home | Current Version | Previous Version | Text Only | Print | Product List | Glossary Off
Versions: 1 2 3 4 5 6 7 8 9 10 11 12 13 14 15 16 17 18 19 20

000
FTUS43 KICT 272228 AAA
TAFRSL
TAF AMD
KRSL 272228Z 2722/2818 19017G26KT P6SM VCTS SCT100CB BKN200
      TEMPO 2722/2724 -TSRA SCT040CB
     FM280000 19015G22KT P6SM VCTS SCT040CB BKN080
     FM281100 31010KT P6SM SCT030 BKN070=

USA.gov is the U.S. government's official web portal to all federal, state and local government web resources and services.